Location: Unspecified
(0.0000°N, 0.0000°E)
Time: 12:45:20
(UTC+00:00)

CZ-3C DEB - Pass Details

Date: 16 February 2026
Orbit: 610 x 36841 km, 20.5° (Epoch: 4 October)

Event Time Altitude Azimuth Distance (km) Brightness Sun altitude
Rises 12:38:34 0° 291° (WNW) 15,256 ? 76.4°
Reaches altitude 10° 12:51:29 10° 293° (WNW) 17,239 ? 74.7°
Maximum altitude 14:28:48 29° 294° (WNW) 30,851 ? 54.4°
Drops below altitude 10° 18:01:44 10° 282° (WNW) 41,249 ? 3.0°
Sets 19:22:58 0° 278° (W) 38,597 ? -16.8°
